| time (UTC) | temp F | wind direction | speed knots | gust knots | rain 1hr in | rain 24hr in | rain mn in | humidity % | barometer mb |
| 20260508044104 | 63 | 292 | 2.6 | 4.3 | 0.00 | 0.00 | 0.00 | 50 | 1018.2 |
| 20260508043104 | 63 | 259 | 2.6 | 2.6 | 0.00 | 0.00 | 0.00 | 48 | 1017.9 |
| 20260508042603 | 63 | 270 | 1.7 | 1.7 | 0.00 | 0.00 | 0.00 | 49 | 1017.9 |
| 20260508041105 | 63 | 270 | 0.0 | 1.7 | 0.00 | 0.00 | 0.00 | 48 | 1017.8 |
| 20260508040104 | 63 | 270 | 2.6 | 2.6 | 0.00 | 0.00 | 0.00 | 47 | 1017.6 |
| 20260508035103 | 63 | 248 | 0.0 | 0.0 | 0.00 | 0.00 | 0.00 | 48 | 1017.5 |
| 20260508034603 | 63 | 248 | 0.0 | 0.9 | 0.00 | 0.00 | 0.00 | 47 | 1017.6 |
| 20260508034104 | 63 | 262 | 1.7 | 1.7 | 0.00 | 0.00 | 0.00 | 47 | 1017.6 |
| 20260508033104 | 62 | 270 | 2.6 | 2.6 | 0.00 | 0.00 | 0.00 | 48 | 1017.7 |
| 20260508032103 | 62 | 283 | 0.9 | 2.6 | 0.00 | 0.00 | 0.00 | 50 | 1017.6 |
| 20260508031603 | 62 | 314 | 0.9 | 2.6 | 0.00 | 0.00 | 0.00 | 48 | 1017.6 |
| 20260508031103 | 62 | 262 | 1.7 | 4.3 | 0.00 | 0.00 | 0.00 | 48 | 1017.6 |
| 20260508030604 | 62 | 235 | 0.9 | 2.6 | 0.00 | 0.00 | 0.00 | 49 | 1017.6 |
| 20260508030111 | 62 | 248 | 0.0 | 0.0 | 0.00 | 0.00 | 0.00 | 50 | 1017.6 |
| 20260508025603 | 62 | 152 | 0.9 | 2.6 | 0.00 | 0.00 | 0.00 | 50 | 1017.7 |
| 20260508025104 | 62 | 192 | 0.9 | 2.6 | 0.00 | 0.00 | 0.00 | 49 | 1017.7 |
| 20260508024104 | 62 | 206 | 0.0 | 0.0 | 0.00 | 0.00 | 0.00 | 51 | 1017.8 |
| 20260508023103 | 63 | 248 | 0.0 | 1.7 | 0.00 | 0.00 | 0.00 | 46 | 1017.7 |
| 20260508022604 | 63 | 248 | 1.7 | 2.6 | 0.00 | 0.00 | 0.00 | 46 | 1017.7 |
| 20260508022105 | 63 | 225 | 1.7 | 1.7 | 0.00 | 0.00 | 0.00 | 46 | 1017.7 |
| 20260508021604 | 63 | 210 | 2.6 | 2.6 | 0.00 | 0.00 | 0.00 | 45 | 1017.7 |
| 20260508021111 | 63 | 270 | 1.7 | 2.6 | 0.00 | 0.00 | 0.00 | 45 | 1017.6 |
| 20260508020604 | 63 | 258 | 2.6 | 4.3 | 0.00 | 0.00 | 0.00 | 45 | 1017.6 |
| 20260508020104 | 63 | 251 | 0.9 | 4.3 | 0.00 | 0.00 | 0.00 | 47 | 1017.8 |
| 20260508015604 | 63 | 286 | 0.9 | 4.3 | 0.00 | 0.00 | 0.00 | 46 | 1017.8 |
| 20260508015103 | 63 | 270 | 2.6 | 6.1 | 0.00 | 0.00 | 0.00 | 45 | 1017.8 |
| 20260508014603 | 63 | 267 | 2.6 | 2.6 | 0.00 | 0.00 | 0.00 | 46 | 1017.9 |
| 20260508014104 | 63 | 270 | 2.6 | 4.3 | 0.00 | 0.00 | 0.00 | 46 | 1017.9 |
| 20260508013104 | 63 | 270 | 2.6 | 2.6 | 0.00 | 0.00 | 0.00 | 47 | 1018.1 |
| 20260508012604 | 63 | 270 | 2.6 | 2.6 | 0.00 | 0.00 | 0.00 | 46 | 1018.1 |
| 20260508012104 | 63 | 270 | 2.6 | 2.6 | 0.00 | 0.00 | 0.00 | 46 | 1018.2 |
| 20260508011604 | 63 | 270 | 2.6 | 2.6 | 0.00 | 0.00 | 0.00 | 46 | 1018.2 |
| 20260508011104 | 63 | 270 | 2.6 | 2.6 | 0.00 | 0.00 | 0.00 | 47 | 1018.4 |
| 20260508010603 | 63 | 270 | 2.6 | 2.6 | 0.00 | 0.00 | 0.00 | 47 | 1018.4 |
| 20260508004103 | 63 | 248 | 1.7 | 1.7 | 0.00 | 0.00 | 0.00 | 45 | 1018.3 |
| 20260508003604 | 63 | 248 | 2.6 | 4.3 | 0.00 | 0.00 | 0.00 | 45 | 1018.4 |
| 20260508003105 | 63 | 248 | 1.7 | 2.6 | 0.00 | 0.00 | 0.00 | 47 | 1018.4 |
| 20260508002604 | 63 | 270 | 2.6 | 4.3 | 0.00 | 0.00 | 0.00 | 46 | 1018.4 |
| 20260508002104 | 63 | 270 | 1.7 | 2.6 | 0.00 | 0.00 | 0.00 | 47 | 1018.4 |
| 20260508001603 | 63 | 270 | 2.6 | 4.3 | 0.00 | 0.00 | 0.00 | 47 | 1018.4 |
| 20260508000603 | 62 | 270 | 2.6 | 5.2 | 0.00 | 0.00 | 0.00 | 51 | 1018.4 |
| 20260508000104 | 62 | 249 | 2.6 | 4.3 | 0.00 | 0.00 | 0.00 | 53 | 1018.5 |
| 20260507235603 | 61 | 270 | 2.6 | 4.3 | 0.00 | 0.00 | 0.00 | 55 | 1018.6 |
| 20260507235106 | 61 | 265 | 2.6 | 4.3 | 0.00 | 0.00 | 0.00 | 58 | 1018.6 |
| 20260507234104 | 61 | 249 | 4.3 | 5.2 | 0.00 | 0.00 | 0.00 | 59 | 1018.8 |
| 20260507233604 | 61 | 250 | 4.3 | 4.3 | 0.00 | 0.00 | 0.00 | 59 | 1018.9 |
| 20260507233104 | 61 | 248 | 4.3 | 5.2 | 0.00 | 0.00 | 0.00 | 58 | 1018.9 |
| 20260507232604 | 61 | 248 | 4.3 | 4.3 | 0.00 | 0.00 | 0.00 | 58 | 1018.9 |
| 20260507231603 | 61 | 248 | 3.5 | 4.3 | 0.00 | 0.00 | 0.00 | 59 | 1018.8 |
| 20260507231103 | 61 | 248 | 3.5 | 5.2 | 0.00 | 0.00 | 0.00 | 60 | 1019.0 |
| 20260507230604 | 61 | 248 | 3.5 | 5.2 | 0.00 | 0.00 | 0.00 | 62 | 1019.0 |
| 20260507225604 | 61 | 248 | 1.7 | 2.6 | 0.00 | 0.00 | 0.00 | 56 | 1019.1 |
| 20260507225104 | 61 | 248 | 2.6 | 5.2 | 0.00 | 0.00 | 0.00 | 59 | 1019.1 |
| 20260507224604 | 60 | 248 | 3.5 | 4.3 | 0.00 | 0.00 | 0.00 | 61 | 1019.1 |
| 20260507224106 | 60 | 248 | 2.6 | 2.6 | 0.00 | 0.00 | 0.00 | 63 | 1019.1 |
| 20260507223604 | 60 | 225 | 1.7 | 2.6 | 0.00 | 0.00 | 0.00 | 64 | 1019.1 |
| 20260507223103 | 60 | 256 | 2.6 | 2.6 | 0.00 | 0.00 | 0.00 | 65 | 1019.1 |
| 20260507222604 | 60 | 240 | 2.6 | 4.3 | 0.00 | 0.00 | 0.00 | 67 | 1019.1 |
| 20260507222103 | 60 | 248 | 2.6 | 2.6 | 0.00 | 0.00 | 0.00 | 68 | 1019.3 |
| 20260507221603 | 60 | 248 | 2.6 | 4.3 | 0.00 | 0.00 | 0.00 | 69 | 1019.3 |
| 20260507221104 | 60 | 240 | 1.7 | 4.3 | 0.00 | 0.00 | 0.00 | 68 | 1019.4 |
| 20260507220603 | 60 | 248 | 2.6 | 4.3 | 0.00 | 0.00 | 0.00 | 68 | 1019.4 |
| 20260507215606 | 60 | 248 | 2.6 | 4.3 | 0.00 | 0.00 | 0.00 | 68 | 1019.6 |
| 20260507215105 | 60 | 214 | 1.7 | 4.3 | 0.00 | 0.00 | 0.00 | 67 | 1019.6 |
| 20260507214603 | 60 | 248 | 2.6 | 4.3 | 0.00 | 0.00 | 0.00 | 66 | 1019.6 |
| 20260507214104 | 60 | 225 | 1.7 | 2.6 | 0.00 | 0.00 | 0.00 | 65 | 1019.6 |
| 20260507213603 | 60 | 269 | 2.6 | 4.3 | 0.00 | 0.00 | 0.00 | 64 | 1019.9 |
| 20260507213107 | 61 | 287 | 1.7 | 4.3 | 0.00 | 0.00 | 0.00 | 63 | 1019.9 |
| 20260507212604 | 61 | 277 | 1.7 | 4.3 | 0.00 | 0.00 | 0.00 | 61 | 1019.9 |
| 20260507212104 | 61 | 253 | 2.6 | 5.2 | 0.00 | 0.00 | 0.00 | 60 | 1019.8 |
| 20260507211109 | 61 | 305 | 1.7 | 2.6 | 0.00 | 0.00 | 0.00 | 59 | 1019.7 |
| 20260507210104 | 61 | 270 | 2.6 | 5.2 | 0.00 | 0.00 | 0.00 | 58 | 1019.7 |
| 20260507205604 | 61 | 268 | 1.7 | 2.6 | 0.00 | 0.00 | 0.00 | 59 | 1019.8 |
| 20260507205119 | 61 | 290 | 2.6 | 5.2 | 0.00 | 0.00 | 0.00 | 59 | 1019.8 |
| 20260507204603 | 61 | 272 | 2.6 | 4.3 | 0.00 | 0.00 | 0.00 | 58 | 1019.8 |
| 20260507204103 | 61 | 270 | 2.6 | 4.3 | 0.00 | 0.00 | 0.00 | 57 | 1019.8 |
| 20260507203604 | 61 | 284 | 0.9 | 2.6 | 0.00 | 0.00 | 0.00 | 60 | 1019.9 |
| 20260507203104 | 61 | 237 | 0.9 | 4.3 | 0.00 | 0.00 | 0.00 | 60 | 1019.9 |
| 20260507202603 | 61 | 275 | 1.7 | 5.2 | 0.00 | 0.00 | 0.00 | 61 | 1019.9 |
| 20260507202104 | 61 | 294 | 1.7 | 4.3 | 0.00 | 0.00 | 0.00 | 62 | 1019.9 |
| 20260507201606 | 61 | 283 | 1.7 | 4.3 | 0.00 | 0.00 | 0.00 | 61 | 1019.9 |
| 20260507201105 | 61 | 286 | 1.7 | 4.3 | 0.00 | 0.00 | 0.00 | 57 | 1019.7 |
| 20260507200606 | 61 | 255 | 1.7 | 2.6 | 0.00 | 0.00 | 0.00 | 57 | 1019.7 |
| 20260507200104 | 61 | 270 | 1.7 | 2.6 | 0.00 | 0.00 | 0.00 | 58 | 1019.7 |
| 20260507195103 | 60 | 248 | 0.9 | 1.7 | 0.00 | 0.00 | 0.00 | 63 | 1019.8 |
| 20260507194604 | 60 | 235 | 0.0 | 1.7 | 0.00 | 0.00 | 0.00 | 66 | 1019.7 |
| 20260507194104 | 60 | 248 | 1.7 | 1.7 | 0.00 | 0.00 | 0.00 | 67 | 1019.7 |
| 20260507193605 | 60 | 202 | 0.0 | 0.0 | 0.00 | 0.00 | 0.00 | 65 | 1019.7 |
| 20260507193104 | 60 | 112 | 0.0 | 0.0 | 0.00 | 0.00 | 0.00 | 64 | 1019.7 |
| 20260507192604 | 60 | 22 | 0.0 | 0.0 | 0.00 | 0.00 | 0.00 | 64 | 1019.7 |
| 20260507192109 | 60 | 202 | 0.0 | 0.0 | 0.00 | 0.00 | 0.00 | 63 | 1019.6 |
| 20260507191603 | 60 | 225 | 0.9 | 1.7 | 0.00 | 0.00 | 0.00 | 63 | 1019.6 |
| 20260507191104 | 60 | 251 | 1.7 | 2.6 | 0.00 | 0.00 | 0.00 | 63 | 1019.7 |
| 20260507190604 | 60 | 255 | 2.6 | 4.3 | 0.00 | 0.00 | 0.00 | 62 | 1019.7 |
| 20260507190105 | 60 | 247 | 2.6 | 4.3 | 0.00 | 0.00 | 0.00 | 62 | 1019.7 |
| 20260507185603 | 60 | 262 | 3.5 | 5.2 | 0.00 | 0.00 | 0.00 | 62 | 1019.7 |
| 20260507185103 | 60 | 257 | 4.3 | 5.2 | 0.00 | 0.00 | 0.00 | 61 | 1019.7 |
| 20260507184604 | 61 | 235 | 2.6 | 5.2 | 0.00 | 0.00 | 0.00 | 61 | 1019.5 |
| 20260507182619 | 61 | 223 | 3.5 | 5.2 | 0.00 | 0.00 | 0.00 | 60 | 1019.4 |
| 20260507182103 | 61 | 215 | 2.6 | 5.2 | 0.00 | 0.00 | 0.00 | 60 | 1019.3 |
| 20260507181115 | 61 | 244 | 4.3 | 6.1 | 0.00 | 0.00 | 0.00 | 61 | 1019.4 |
| 20260507180604 | 61 | 189 | 4.3 | 6.1 | 0.00 | 0.00 | 0.00 | 61 | 1019.4 |
| 20260507180105 | 61 | 163 | 4.3 | 5.2 | 0.00 | 0.00 | 0.00 | 61 | 1019.3 |
| 20260507175604 | 61 | 203 | 4.3 | 6.1 | 0.00 | 0.00 | 0.00 | 61 | 1019.3 |
| 20260507174604 | 61 | 158 | 2.6 | 4.3 | 0.00 | 0.00 | 0.00 | 65 | 1019.4 |
| 20260507174106 | 61 | 270 | 2.6 | 4.3 | 0.00 | 0.00 | 0.00 | 65 | 1019.4 |
| 20260507173103 | 62 | 257 | 3.5 | 5.2 | 0.00 | 0.00 | 0.00 | 64 | 1019.4 |
| 20260507172104 | 62 | 277 | 2.6 | 4.3 | 0.00 | 0.00 | 0.00 | 67 | 1019.2 |
| 20260507171604 | 62 | 293 | 2.6 | 4.3 | 0.00 | 0.00 | 0.00 | 65 | 1019.2 |
| 20260507171104 | 63 | 152 | 2.6 | 5.2 | 0.00 | 0.00 | 0.00 | 63 | 1018.9 |
| 20260507170604 | 63 | 210 | 0.9 | 2.6 | 0.00 | 0.00 | 0.00 | 66 | 1018.9 |
| 20260507170104 | 63 | 135 | 0.9 | 2.6 | 0.00 | 0.00 | 0.00 | 68 | 1018.9 |
| 20260507165111 | 64 | 101 | 0.9 | 2.6 | 0.00 | 0.00 | 0.00 | 66 | 1018.9 |
| 20260507164604 | 64 | 112 | 1.7 | 1.7 | 0.00 | 0.00 | 0.00 | 67 | 1018.9 |
| 20260507164103 | 64 | 111 | 2.6 | 2.6 | 0.00 | 0.00 | 0.00 | 67 | 1018.9 |
| 20260507163603 | 64 | 114 | 2.6 | 2.6 | 0.00 | 0.00 | 0.00 | 67 | 1019.1 |
| 20260507163103 | 64 | 189 | 1.7 | 2.6 | 0.00 | 0.00 | 0.00 | 65 | 1019.1 |
| 20260507162104 | 65 | 103 | 1.7 | 2.6 | 0.00 | 0.00 | 0.00 | 59 | 1019.1 |
| 20260507161604 | 66 | 120 | 0.0 | 4.3 | 0.00 | 0.00 | 0.00 | 57 | 1019.1 |
| 20260507160104 | 66 | 123 | 3.5 | 5.2 | 0.00 | 0.00 | 0.00 | 52 | 1019.2 |
| 20260507155604 | 67 | 150 | 3.5 | 5.2 | 0.00 | 0.00 | 0.00 | 51 | 1019.2 |
| 20260507155105 | 67 | 113 | 3.5 | 5.2 | 0.00 | 0.00 | 0.00 | 51 | 1019.2 |
| 20260507154609 | 67 | 131 | 1.7 | 2.6 | 0.00 | 0.00 | 0.00 | 48 | 1019.3 |
| 20260507154106 | 67 | 150 | 2.6 | 5.2 | 0.00 | 0.00 | 0.00 | 49 | 1019.3 |
| 20260507153104 | 69 | 160 | 1.7 | 4.3 | 0.00 | 0.00 | 0.00 | 45 | 1019.4 |
| 20260507152604 | 68 | 178 | 1.7 | 2.6 | 0.00 | 0.00 | 0.00 | 45 | 1019.4 |
| 20260507152103 | 69 | 101 | 1.7 | 5.2 | 0.00 | 0.00 | 0.00 | 44 | 1019.3 |
| 20260507151604 | 69 | 180 | 1.7 | 6.1 | 0.00 | 0.00 | 0.00 | 42 | 1019.3 |
| 20260507145103 | 70 | 194 | 3.5 | 7.8 | 0.00 | 0.00 | 0.00 | 42 | 1019.3 |
| 20260507144604 | 70 | 187 | 3.5 | 5.2 | 0.00 | 0.00 | 0.00 | 40 | 1019.3 |
| 20260507144106 | 70 | 162 | 2.6 | 5.2 | 0.00 | 0.00 | 0.00 | 38 | 1019.3 |
| 20260507143104 | 70 | 112 | 3.5 | 5.2 | 0.00 | 0.00 | 0.00 | 39 | 1019.3 |
| 20260507142604 | 71 | 90 | 2.6 | 4.3 | 0.00 | 0.00 | 0.00 | 38 | 1019.3 |
| 20260507142104 | 71 | 136 | 3.5 | 6.1 | 0.00 | 0.00 | 0.00 | 39 | 1019.1 |
| 20260507141604 | 71 | 127 | 2.6 | 5.2 | 0.00 | 0.00 | 0.00 | 37 | 1019.1 |
| 20260507141104 | 71 | 200 | 2.6 | 7.8 | 0.00 | 0.00 | 0.00 | 36 | 1018.9 |
| 20260507140105 | 72 | 163 | 4.3 | 6.1 | 0.00 | 0.00 | 0.00 | 37 | 1018.8 |
| 20260507135604 | 72 | 37 | 4.3 | 7.0 | 0.00 | 0.00 | 0.00 | 38 | 1018.8 |
| 20260507135103 | 73 | 147 | 2.6 | 7.0 | 0.00 | 0.00 | 0.00 | 38 | 1018.8 |
| 20260507134103 | 72 | 122 | 5.2 | 8.7 | 0.00 | 0.00 | 0.00 | 41 | 1018.8 |
| 20260507133604 | 72 | 147 | 4.3 | 6.1 | 0.00 | 0.00 | 0.00 | 42 | 1018.7 |
| 20260507133111 | 72 | 135 | 5.2 | 7.0 | 0.00 | 0.00 | 0.00 | 42 | 1018.7 |
| 20260507132111 | 72 | 155 | 2.6 | 6.1 | 0.00 | 0.00 | 0.00 | 43 | 1018.8 |
| 20260507130604 | 71 | 137 | 4.3 | 8.7 | 0.00 | 0.00 | 0.00 | 49 | 1019.0 |
| 20260507130104 | 70 | 146 | 3.5 | 7.0 | 0.00 | 0.00 | 0.00 | 48 | 1019.1 |
| 20260507125606 | 70 | 133 | 5.2 | 7.0 | 0.00 | 0.00 | 0.00 | 47 | 1019.3 |
| 20260507125103 | 71 | 122 | 2.6 | 4.3 | 0.00 | 0.00 | 0.00 | 46 | 1019.3 |
| 20260507124104 | 71 | 149 | 5.2 | 7.8 | 0.00 | 0.00 | 0.00 | 45 | 1019.2 |
| 20260507123603 | 73 | 130 | 5.2 | 7.8 | 0.00 | 0.00 | 0.00 | 44 | 1019.3 |
| 20260507122111 | 74 | 121 | 6.1 | 8.7 | 0.00 | 0.00 | 0.00 | 43 | 1019.4 |
| 20260507121107 | 73 | 135 | 6.1 | 8.7 | 0.00 | 0.00 | 0.00 | 42 | 1019.3 |
| 20260507120603 | 73 | 134 | 6.1 | 8.7 | 0.00 | 0.00 | 0.00 | 42 | 1019.3 |
| 20260507120104 | 74 | 112 | 6.1 | 8.7 | 0.00 | 0.00 | 0.00 | 40 | 1019.4 |
| 20260507115607 | 74 | 170 | 4.3 | 7.0 | 0.00 | 0.00 | 0.00 | 37 | 1019.4 |
| 20260507115104 | 75 | 134 | 6.1 | 7.0 | 0.00 | 0.00 | 0.00 | 35 | 1019.4 |
| 20260507114604 | 75 | 96 | 5.2 | 8.7 | 0.00 | 0.00 | 0.00 | 35 | 1019.5 |
| 20260507114104 | 75 | 125 | 6.1 | 7.8 | 0.00 | 0.00 | 0.00 | 34 | 1019.5 |
| 20260507113604 | 75 | 128 | 7.8 | 13.0 | 0.00 | 0.00 | 0.00 | 34 | 1019.7 |
| 20260507112604 | 76 | 122 | 4.3 | 8.7 | 0.00 | 0.00 | 0.00 | 36 | 1019.7 |
| 20260507112103 | 75 | 127 | 6.1 | 8.7 | 0.00 | 0.00 | 0.00 | 36 | 1019.4 |
| 20260507111604 | 75 | 145 | 6.1 | 8.7 | 0.00 | 0.00 | 0.00 | 36 | 1019.4 |
| 20260507111103 | 74 | 113 | 7.8 | 12.2 | 0.00 | 0.00 | 0.00 | 52 | 1019.5 |
| 20260507110603 | 74 | 161 | 5.2 | 8.7 | 0.00 | 0.00 | 0.00 | 51 | 1019.5 |
| 20260507110104 | 74 | 143 | 7.0 | 8.7 | 0.00 | 0.00 | 0.00 | 58 | 1019.4 |
| 20260507105106 | 72 | 120 | 5.2 | 7.8 | 0.00 | 0.00 | 0.00 | 68 | 1019.4 |
| 20260507104604 | 72 | 114 | 7.0 | 10.4 | 0.00 | 0.00 | 0.00 | 66 | 1019.1 |
| 20260507104104 | 73 | 115 | 7.8 | 10.4 | 0.00 | 0.00 | 0.00 | 62 | 1019.1 |
| 20260507103604 | 72 | 136 | 5.2 | 8.7 | 0.00 | 0.00 | 0.00 | 59 | 1019.1 |
| 20260507103103 | 73 | 125 | 7.8 | 11.3 | 0.00 | 0.00 | 0.00 | 55 | 1019.1 |
| 20260507102620 | 73 | 135 | 5.2 | 8.7 | 0.00 | 0.00 | 0.00 | 61 | 1019.1 |
| 20260507101604 | 73 | 113 | 4.3 | 7.0 | 0.00 | 0.00 | 0.00 | 62 | 1019.3 |
| 20260507101104 | 71 | 120 | 4.3 | 6.1 | 0.00 | 0.00 | 0.00 | 72 | 1019.2 |
| 20260507100609 | 72 | 99 | 6.1 | 7.0 | 0.00 | 0.00 | 0.00 | 73 | 1019.2 |
| 20260507100104 | 71 | 122 | 5.2 | 8.7 | 0.00 | 0.00 | 0.00 | 75 | 1019.2 |
| 20260507095104 | 71 | 112 | 6.1 | 7.8 | 0.00 | 0.00 | 0.00 | 78 | 1019.2 |
| 20260507094604 | 71 | 67 | 5.2 | 7.0 | 0.00 | 0.00 | 0.00 | 79 | 1019.3 |
| 20260507094104 | 70 | 121 | 7.0 | 8.7 | 0.00 | 0.00 | 0.00 | 78 | 1019.3 |
| 20260507093604 | 71 | 112 | 5.2 | 7.0 | 0.00 | 0.00 | 0.00 | 79 | 1019.2 |
| 20260507093111 | 70 | 95 | 4.3 | 7.0 | 0.00 | 0.00 | 0.00 | 78 | 1019.2 |
| 20260507092603 | 70 | 125 | 5.2 | 7.0 | 0.00 | 0.00 | 0.00 | 77 | 1019.2 |
| 20260507092104 | 70 | 86 | 5.2 | 7.0 | 0.00 | 0.00 | 0.00 | 77 | 1019.1 |
| 20260507091603 | 70 | 111 | 2.6 | 5.2 | 0.00 | 0.00 | 0.00 | 76 | 1019.1 |
| 20260507091105 | 69 | 134 | 5.2 | 7.8 | 0.00 | 0.00 | 0.00 | 77 | 1019.1 |
| 20260507090604 | 69 | 128 | 6.1 | 8.7 | 0.00 | 0.00 | 0.00 | 75 | 1019.1 |
| 20260507090105 | 69 | 112 | 7.0 | 8.7 | 0.00 | 0.00 | 0.00 | 77 | 1019.1 |
| 20260507085103 | 69 | 95 | 5.2 | 7.8 | 0.00 | 0.00 | 0.00 | 75 | 1019.2 |
| 20260507084105 | 70 | 79 | 4.3 | 7.0 | 0.00 | 0.00 | 0.00 | 74 | 1019.2 |
| 20260507083604 | 69 | 123 | 5.2 | 7.8 | 0.00 | 0.00 | 0.00 | 74 | 1019.1 |
| 20260507083103 | 70 | 112 | 6.1 | 7.8 | 0.00 | 0.00 | 0.00 | 74 | 1019.1 |
| 20260507082604 | 70 | 112 | 6.1 | 7.8 | 0.00 | 0.00 | 0.00 | 73 | 1019.1 |
| 20260507082103 | 70 | 96 | 4.3 | 6.1 | 0.00 | 0.00 | 0.00 | 64 | 1019.1 |
| 20260507081604 | 70 | 112 | 5.2 | 7.0 | 0.00 | 0.00 | 0.00 | 63 | 1019.1 |
| 20260507081111 | 70 | 125 | 5.2 | 6.1 | 0.00 | 0.00 | 0.00 | 63 | 1019.0 |
| 20260507080603 | 71 | 125 | 2.6 | 5.2 | 0.00 | 0.00 | 0.00 | 62 | 1019.0 |
| 20260507080111 | 70 | 122 | 2.6 | 4.3 | 0.00 | 0.00 | 0.00 | 64 | 1019.0 |
| 20260507075619 | 70 | 130 | 4.3 | 7.0 | 0.00 | 0.00 | 0.00 | 60 | 1018.9 |
| 20260507075104 | 69 | 135 | 3.5 | 6.1 | 0.00 | 0.00 | 0.00 | 62 | 1018.9 |
| 20260507074103 | 69 | 112 | 5.2 | 7.0 | 0.00 | 0.00 | 0.00 | 63 | 1018.7 |
| 20260507073604 | 69 | 72 | 6.1 | 7.0 | 0.00 | 0.00 | 0.00 | 63 | 1018.7 |
| 20260507073104 | 71 | 122 | 5.2 | 7.8 | 0.00 | 0.00 | 0.00 | 61 | 1018.7 |
| 20260507072604 | 71 | 131 | 4.3 | 5.2 | 0.00 | 0.00 | 0.00 | 59 | 1018.7 |
| 20260507072104 | 71 | 121 | 5.2 | 7.0 | 0.00 | 0.00 | 0.00 | 59 | 1018.8 |
| 20260507070619 | 70 | 112 | 5.2 | 6.1 | 0.00 | 0.00 | 0.00 | 63 | 1018.9 |
| 20260507065103 | 71 | 119 | 4.3 | 5.2 | 0.00 | 0.00 | 0.00 | 66 | 1018.8 |
| 20260507064106 | 71 | 118 | 3.5 | 4.3 | 0.00 | 0.00 | 0.00 | 59 | 1018.8 |
| 20260507063606 | 69 | 141 | 1.7 | 5.2 | 0.00 | 0.00 | 0.00 | 62 | 1018.8 |
| 20260507063104 | 68 | 139 | 3.5 | 5.2 | 0.00 | 0.00 | 0.00 | 69 | 1018.8 |
| 20260507062104 | 67 | 123 | 4.3 | 6.1 | 0.00 | 0.00 | 0.00 | 65 | 1018.7 |
| 20260507061603 | 67 | 110 | 4.3 | 5.2 | 0.00 | 0.00 | 0.00 | 68 | 1018.7 |
| 20260507060603 | 67 | 135 | 6.1 | 7.0 | 0.00 | 0.00 | 0.00 | 63 | 1018.5 |
| 20260507055103 | 70 | 90 | 2.6 | 4.3 | 0.00 | 0.00 | 0.00 | 53 | 1018.2 |
| 20260507054604 | 69 | 93 | 2.6 | 5.2 | 0.00 | 0.00 | 0.00 | 53 | 1018.1 |
| 20260507054104 | 70 | 116 | 2.6 | 5.2 | 0.00 | 0.00 | 0.00 | 53 | 1018.1 |
| 20260507053611 | 70 | 89 | 2.6 | 2.6 | 0.00 | 0.00 | 0.00 | 51 | 1018.1 |
| 20260507053104 | 71 | 103 | 2.6 | 4.3 | 0.00 | 0.00 | 0.00 | 50 | 1018.1 |
| 20260507052105 | 70 | 115 | 0.9 | 1.7 | 0.00 | 0.00 | 0.00 | 51 | 1018.0 |
| 20260507051604 | 69 | 112 | 1.7 | 2.6 | 0.00 | 0.00 | 0.00 | 51 | 1018.0 |
| 20260507051104 | 70 | 100 | 2.6 | 2.6 | 0.00 | 0.00 | 0.00 | 52 | 1018.1 |
| 20260507050606 | 72 | 16 | 2.6 | 2.6 | 0.00 | 0.00 | 0.00 | 50 | 1018.1 |
| 20260507050104 | 69 | 110 | 0.0 | 0.0 | 0.00 | 0.00 | 0.00 | 57 | 1018.0 |
| 20260507045605 | 69 | 90 | 0.0 | 0.0 | 0.00 | 0.00 | 0.00 | 56 | 1017.9 |
| 20260507044611 | 69 | 112 | 0.0 | 0.0 | 0.00 | 0.00 | 0.00 | 55 | 1017.8 |